Location: Newark
(41.6500°N, 71.4833°W)
Time: 01:24:13
(UTC+00:00)

Transit 2A Rocket - Pass Details

Date: 27 January 2020
Orbit: 591 x 912 km, 66.7° (Epoch: 25 February)

Event Time Altitude Azimuth Distance (km) Brightness Sun altitude
Rises 18:04:32 0° 331° (NNW) 3,026 7.7 28.0°
Reaches altitude 10° 18:06:46 10° 334° (NNW) 2,153 7.0 27.9°
Maximum altitude 18:11:40 70° 59° (ENE) 789 5.3 27.6°
Drops below altitude 10° 18:17:02 10° 143° (SE) 2,354 8.0 27.2°
Sets 18:19:34 0° 145° (SE) 3,331 8.7 27.0°
